Regional Weather Roundup
Issued by NWS

Home | Current Version | Previous Version | Text Only | Print | Product List | Glossary Off
Versions: 1 2 3 4 5 6 7 8 9 10 11 12 13 14 15 16 17 18 19 20 21 22 23 24 25 26 27 28 29 30 31 32 33 34 35 36 37 38 39 40 41 42 43 44 45 46 47 48 49 50

000
ASUS43 KDTX 241801
RWRMI
MICHIGAN HOURLY REGIONAL WEATHER ROUNDUP
NATIONAL WEATHER SERVICE DETROIT/PONTIAC MI
100 PM EST WED DEC 24 2014

NOTE: "FAIR" INDICATES FEW OR NO CLOUDS BELOW 12,000 FEET WITH NO
SIGNIFICANT WEATHER AND/OR OBSTRUCTION TO VISIBILITY.

MIZ047>049-052>055-059>063-066>070-074>076-081>083-241900-
SOUTHEAST LOWER MICHIGAN

CITY           SKY/WX    TMP DP  RH WIND       PRES   REMARKS
ADRIAN         RAIN      44  43  96 N10       29.41F FOG
6HR MIN TEMP:  44; 6HR MAX TEMP:  46; 6HR PCP:  0.01;

ALMA           LGT RAIN  37  37 100 NW7       29.49F WCI  32
ANN ARBOR      RAIN      47  46  97 NW3       29.40F FOG
BAD AXE        LGT RAIN  41  41 100 NE10      29.43F
6HR MIN TEMP:  40; 6HR MAX TEMP:  41;

CARO           LGT RAIN  40  40  99 N6        29.42F
DETROIT CITY   FOG       49  46  90 E5        29.40F VSB 1/4
6HR MIN TEMP:  46; 6HR MAX TEMP:  49; 6HR PCP:  0.01;

DETROIT        LGT RAIN  48  48 100 CALM      29.40F VSB 1/8
6HR MIN TEMP:  46; 6HR MAX TEMP:  48; 6HR PCP:  0.03;

FLINT          LGT RAIN  44  41  89 N7        29.43F FOG
6HR MIN TEMP:  43; 6HR MAX TEMP:  44; 6HR PCP:  0.16;

GROSSE ILE     FOG       45  43  93 S5        29.39F VSB<1/4
HILLSDALE      RAIN      41  41 100 N7        29.42F
6HR MIN TEMP:  41; 6HR MAX TEMP:  43;

HOWELL         RAIN      40  40 100 W9        29.43F WCI  35
6HR MIN TEMP:  40; 6HR MAX TEMP:  42;


CITY           SKY/WX    TMP DP  RH WIND       PRES   REMARKS
JACKSON        RAIN      40  38  93 N8        29.42F FOG     WCI  34
6HR MIN TEMP:  40; 6HR MAX TEMP:  43; 6HR PCP:  0.23;

LAMBERTVILLE   FOG       50  48  93 CALM      29.39F VSB 1
LANSING        LGT RAIN  39  38  96 N9        29.46F FOG     WCI  33
6HR MIN TEMP:  39; 6HR MAX TEMP:  41; 6HR PCP:  0.29;

LAPEER         RAIN      41  40  97 NE5       29.41F
MASON          LGT SNOW  38  37  94 N9        29.44F WCI  32
MONROE         FOG       50  50 100 S3        29.38F VSB<1/4
MT. CLEMENS    FOG       46  46 100 NE6       29.37F VSB 1/8
6HR MIN TEMP:  45; 6HR MAX TEMP:  46; 6HR PCP:  0.05;

PONTIAC        LGT RAIN  43  43 100 NE5       29.39F VSB 1
6HR MIN TEMP:  42; 6HR MAX TEMP:  45; 6HR PCP:  0.06;

PORT HOPE        N/A     38  37  97 N10       29.43F WCI  31
6HR MIN TEMP:  38; 6HR MAX TEMP:  40; 6HR PCP:  0.05;

PORT HURON     FOG       43  43 100 CALM      29.41F VSB 1/4
TRI CITIES     LGT RAIN  41  38  89 NW12      29.47F
6HR MIN TEMP:  40; 6HR MAX TEMP:  41; 6HR PCP:  0.22;

TROY           FOG       46  44  93 NE5       29.41F VSB 1/2
SAGINAW HB     LGT RAIN  37  37 100 N10G16    29.46F WCI  30
$$
MIZ043>046-050>051-056>058-064>065-071>073-077>080-241900-
SOUTHWEST LOWER MICHIGAN

CITY           SKY/WX    TMP DP  RH WIND       PRES   REMARKS
BATTLE CREEK   LGT RAIN  40  37  89 N7        29.48S
6HR MIN TEMP:  40; 6HR MAX TEMP:  42; 6HR PCP:  0.12;

BENTON HARBOR  CLOUDY    40  38  93 CALM      29.48F
6HR MIN TEMP:  39; 6HR MAX TEMP:  40; 6HR PCP:  0.14;

BIG RAPIDS     LGT SNOW  37  37 100 N5        29.49F WCI  33
6HR MIN TEMP:  34; 6HR MAX TEMP:  37; 6HR PCP:  0.16;

COLDWATER      MIX PCPN  39  38  97 N10       29.44F WCI  32
6HR MIN TEMP:  39; 6HR MAX TEMP:  41;

FREMONT        LGT RAIN  37  37  99 N5        29.50F WCI  33
HOLLAND        CLOUDY    42  37  82 N5        29.50F
6HR MIN TEMP:  41; 6HR MAX TEMP:  42; 6HR PCP:  0.18;

GRAND RAPIDS   LGT RAIN  38  36  92 NE8       29.49F FOG     WCI  32
6HR MIN TEMP:  38; 6HR MAX TEMP:  39; 6HR PCP:  0.28;

IONIA          RAIN      39  38  99 N9        29.47F WCI  32
KALAMAZOO      LGT RAIN  39  37  92 N9        29.48F WCI  33
6HR MIN TEMP:  39; 6HR MAX TEMP:  41; 6HR PCP:  0.16;

LUDINGTON      LGT RAIN  38  36  91 CALM      29.53F
6HR MIN TEMP:  36; 6HR MAX TEMP:  38; 6HR PCP:  0.02;

MARSHALL       LGT RAIN  38  37  94 N5        29.45F WCI  35
MOUNT PLEASANT LGT RAIN  38  37  98 CALM      29.49F
6HR MIN TEMP:  37; 6HR MAX TEMP:  38; 6HR PCP:  0.18;

MUSKEGON       CLOUDY    40  37  89 N3        29.51F
6HR MIN TEMP:  38; 6HR MAX TEMP:  40; 6HR PCP:  0.23;

SOUTH HAVEN    CLOUDY    41  38  90 NE6       29.48F
$$
MIZ016>042-241900-
NORTHERN LOWER MICHIGAN

CITY           SKY/WX    TMP DP  RH WIND       PRES   REMARKS
ALPENA         RAIN      38  38 100 NE6       29.50  FOG     WCI  33
6HR MIN TEMP:  34; 6HR MAX TEMP:  38; 6HR PCP:  0.24;

BEAVER ISLAND  MIX PCPN  37  36  97 CALM      29.53F
6HR MIN TEMP:  34; 6HR MAX TEMP:  37;

BELLAIRE       CLOUDY    38  37  94 CALM      29.54F
6HR MIN TEMP:  32; 6HR MAX TEMP:  38;

CADILLAC       MIX PCPN  35  34  95 CALM      29.49F
CHARLEVOIX     CLOUDY    37  37  97 CALM      29.56F
6HR MIN TEMP:  34; 6HR MAX TEMP:  38;

FRANKFORT      LGT RAIN  38  37  96 CALM      29.53F
GAYLORD        LGT RAIN  34  34 100 CALM      29.51F FOG
6HR MIN TEMP:  33; 6HR MAX TEMP:  35; 6HR PCP:  0.02;

GRAYLING       LGT SNOW  36  36 100 CALM      29.52F VSB 3/4
6HR MIN TEMP:  33; 6HR MAX TEMP:  38;

HARBOR SPRINGS CLOUDY    35  34  97 CALM      29.52F FOG
HOUGHTON LAKE  LGT SNOW  34  33  96 CALM      29.52F FOG
6HR MIN TEMP:  34; 6HR MAX TEMP:  35; 6HR PCP:  0.36;

MANISTEE       CLOUDY    37  36  93 E6        29.53F WCI  33
OSCODA         RAIN      39  39 100 NE13      29.46F WCI  31
PELLSTON       CLOUDY    36  35  96 CALM      29.53F FOG
6HR MIN TEMP:  32; 6HR MAX TEMP:  36;

ROGERS CITY    CLOUDY    37  37 100 CALM      29.54F FOG
TRAVERSE CITY  LGT RAIN  38  36  92 CALM      29.53F FOG
6HR MIN TEMP:  35; 6HR MAX TEMP:  39; 6HR PCP:  0.02;

$$
MIZ007>008-015-241900-
EASTERN UPPER MICHIGAN

CITY           SKY/WX    TMP DP  RH WIND       PRES   REMARKS
KINROSS        CLOUDY    36  36 100 N3        29.52F VSB<1/4
6HR MIN TEMP:  34; 6HR MAX TEMP:  37;

MACKINAC ISLAN FOG       35  35 100 E3        29.53F VSB<1/4
6HR MIN TEMP:  35; 6HR MAX TEMP:  36;

NEWBERRY       FOG       34  34 100 N7        29.53F VSB<1/4 WCI  28
6HR MIN TEMP:  32; 6HR MAX TEMP:  34;

S. S. MARIE    CLOUDY    36  35  96 NE3       29.52F FOG
6HR MIN TEMP:  34; 6HR MAX TEMP:  36;

MUNISING         N/A     36  33  89 N10       29.55F WCI  28
6HR MIN TEMP:  36; 6HR MAX TEMP:  38; 6HR PCP:  0.05;

$$
MIZ004>006-011>014-085-241900-
CENTRAL UPPER MICHIGAN

CITY           SKY/WX    TMP DP  RH WIND       PRES   REMARKS
MANISTIQUE     FOG       35  35 100 N6        29.53F VSB 3/4 WCI  30
6HR MIN TEMP:  34; 6HR MAX TEMP:  35;

ESCANABA       CLOUDY    36  34  93 N5        29.55F WCI  32
6HR MIN TEMP:  34; 6HR MAX TEMP:  36;

MENOMINEE      CLOUDY    36  34  93 N6        29.55F VSB 3/4 WCI  31
6HR MIN TEMP:  34; 6HR MAX TEMP:  36;

SAWYER-GWINN   CLOUDY    32  30  93 N13       29.55F FOG     WCI  22
$$
MIZ001>003-009>011-084-241900-
WESTERN UPPER MICHIGAN

CITY           SKY/WX    TMP DP  RH WIND       PRES   REMARKS
IRON MOUNTAIN  CLOUDY    33  30  88 N10       29.55F FOG     WCI  25
6HR MIN TEMP:  32; 6HR MAX TEMP:  34; 6HR PCP:  0.01;

HOUGHTON       LGT SNOW  31  27  85 NW7       29.59F FOG     WCI  24
6HR MIN TEMP:  30; 6HR MAX TEMP:  31; 6HR PCP:  0.01;

COPPER HARBOR    N/A     33  29  85 NE9       29.60F WCI  25
6HR MIN TEMP:  32; 6HR MAX TEMP:  34;

IRONWOOD       CLOUDY    32  30  93 N6        29.60F WCI  26
6HR MIN TEMP:  30; 6HR MAX TEMP:  32;

$$

ABBREVIATIONS USED IN REMARKS
   TC - TEMPERATURE IN CELSIUS
  WCI - WIND CHILL INDEX
   HX - HEAT INDEX
  VSB - VISIBILITY



USA.gov is the U.S. government's official web portal to all federal, state and local government web resources and services.